Location: Madrid
(40.4167°N, 3.7036°W)
Time: 02:33:59
(UTC+00:00)

ISS - Pass Details

Date: 09 May 2026
Orbit: 414 x 424 km, 51.6° (Epoch: 15 May)

Event Time Altitude Azimuth Distance (km) Brightness Sun altitude
Rises 04:30:54 0° 289° (WNW) 2,361 -0.3 -6.6°
Reaches altitude 10° 04:33:49 10° 261° (W) 1,495 -1.5 -6.1°
Maximum altitude 04:35:31 13° 231° (SW) 1,308 -1.9 -5.8°
Drops below altitude 10° 04:37:13 10° 200° (SSW) 1,493 -1.4 -5.5°
Sets 04:40:08 0° 172° (S) 2,353 -0.2 -5.1°
